Lid_Strength_Index
2 2 1 1 2 3 5 6 6 8 7 7 7 5 5 6 6 7 8 7 8 8 8 7 7 7 7 6 6 7 7 8 8 7 6 6 5 5
2 2 2 1 1 2 5 6 6 6 7 5 6 7 5 5 6 7 8 7 8 9 9 9 8 8 7 7 7 8 8 8 8 7 6 6 5 5
1 2 1 1 1 3 5 6 6 6 6 7 6 7 7 7 7 8 8 9 9 9 10 10 10 9 9 9 9 8 8 8 8 7 7 6 6 5
1 1 1 1 2 3 4 6 5 6 6 6 7 7 7 7 9 9 8 9 9 9 10 10 10 11 11 10 10 10 10 9 9 8 7 6 6 6
1 1 1 1 2 3 4 5 5 5 6 7 7 7 7 8 9 8 9 9 10 9 10 11 11 11 11 11 11 11 11 10 10 10 9 8 7 7
1 1 1 1 2 2 3 4 5 5 5 7 8 9 8 8 9 9 8 8 9 8 9 11 11 11 11 11 11 11 11 11 11 10 10 9 9 8
1 1 1 2 5 4 2 3 5 5 6 6 7 8 8 8 8 8 8 8 8 8 9 9 11 12 12 11 11 11 11 11 11 10 9 9 9 8
2 2 1 6 6 9 9 8 6 5 6 5 5 6 7 8 8 8 8 9 10 7 8 10 10 11 11 12 11 11 11 11 11 11 9 9 8 9
2 2 2 2 6 4 10 11 11 11 8 5 6 5 6 6 7 7 8 8 8 7 7 10 11 11 12 11 11 11 11 11 11 10 10 9 9 9
1 1 1 2 3 4 4 7 7 8 8 8 5 5 5 5 5 5 6 7 8 9 8 12 11 13 12 11 11 10 11 11 11 11 10 9 10 9
2 1 1 1 6 9 4 5 6 8 13 13 11 9 10 10 7 6 7 8 11 11 11 11 13 13 13 12 11 11 11 12 11 11 10 10 10 10
3 3 9 3 11 12 3 4 6 6 10 12 10 10 10 9 10 5 6 8 13 14 11 12 14 14 17 16 14 13 14 13 12 11 10 10 10 11
3 4 4 11 12 12 8 5 5 7 12 9 10 9 9 8 7 6 6 7 11 12 11 12 15 15 17 17 16 15 14 13 12 12 10 9 9 10
3 3 4 12 12 12 11 11 12 12 11 12 12 11 11 10 9 8 8 8 8 9 10 11 14 14 17 18 17 16 15 14 13 12 11 10 10 9
3 5 10 12 12 12 12 12 13 10 12 12 11 10 11 10 10 11 11 10 11 10 10 11 12 14 15 16 17 16 16 15 14 13 12 12 12 11
13 11 11 12 13 13 14 13 10 10 10 10 10 11 10 9 11 11 13 13 14 14 12 12 12 14 17 17 16 16 16 17 14 13 13 12 12 12
14 13 12 13 13 13 13 12 12 11 11 11 11 11 10 10 11 12 13 14 14 14 15 14 14 14 16 16 17 16 16 15 14 14 13 13 13 12
14 14 14 13 12 12 13 12 12 12 11 10 10 10 10 11 12 12 13 14 15 15 15 15 15 15 15 14 13 17 16 16 15 14 14 16 14 12
14 15 15 15 14 13 13 13 14 12 11 11 11 11 11 11 13 14 14 14 15 15 14 14 14 16 17 16 16 13 16 16 17 17 16 16 16 13
15 15 15 14 14 15 14 14 13 13 13 13 13 13 12 13 13 14 14 14 15 15 15 14 14 15 15 15 15 14 13 14 17 17 17 16 15 13
14 15 15 14 15 15 14 15 14 14 14 13 14 14 13 13 13 13 13 14 14 15 15 15 13 13 12 13 15 15 14 14 14 15 15 18 17 17
14 13 14 14 15 15 15 15 14 15 15 14 14 14 14 13 13 14 13 13 14 14 14 13 12 13 13 14 15 16 15 15 14 14 14 14 17 20
13 13 13 13 13 13 13 14 14 15 14 14 14 14 14 14 13 13 13 14 14 14 14 14 14 14 14 14 15 15 15 16 15 16 14 14 14 14